TimeCST,TemperatureF,Dew PointF,Humidity,Sea Level PressureIn,VisibilityMPH,Wind Direction,Wind SpeedMPH,Gust SpeedMPH,PrecipitationIn,Events,Conditions,WindDirDegrees,DateUTC
12:15 AM,-5.8,-14.8,65,30.54,10.0,NW,9.2,-,N/A,,Clear,310,2014-03-03 06:15:00
12:35 AM,-5.8,-14.8,65,30.55,10.0,WNW,5.8,-,N/A,,Clear,300,2014-03-03 06:35:00
12:55 AM,-5.8,-14.8,65,30.55,10.0,WNW,6.9,-,N/A,,Clear,290,2014-03-03 06:55:00
1:15 AM,-5.8,-14.8,65,30.55,10.0,WNW,4.6,-,N/A,,Clear,300,2014-03-03 07:15:00
1:35 AM,-5.8,-14.8,65,30.56,10.0,WNW,4.6,-,N/A,,Clear,290,2014-03-03 07:35:00
1:55 AM,-5.8,-16.6,60,30.55,10.0,West,4.6,-,N/A,,Clear,280,2014-03-03 07:55:00
2:15 AM,-7.6,-16.6,65,30.55,10.0,WNW,5.8,-,N/A,,Clear,300,2014-03-03 08:15:00
2:35 AM,-7.6,-16.6,65,30.54,10.0,WNW,4.6,-,N/A,,Clear,300,2014-03-03 08:35:00
2:55 AM,-7.6,-16.6,65,30.53,10.0,WNW,3.5,-,N/A,,Clear,290,2014-03-03 08:55:00
3:15 AM,-7.6,-16.6,65,30.53,10.0,WNW,5.8,-,N/A,,Clear,300,2014-03-03 09:15:00
3:35 AM,-7.6,-16.6,65,30.52,10.0,West,4.6,-,N/A,,Clear,280,2014-03-03 09:35:00
3:55 AM,-7.6,-16.6,65,30.52,10.0,WNW,4.6,-,N/A,,Clear,290,2014-03-03 09:55:00
4:10 AM,-7.6,-16.6,65,30.53,10.0,WNW,4.6,-,N/A,,Clear,290,2014-03-03 10:10:00
4:35 AM,-9.4,-16.6,71,30.53,10.0,Calm,Calm,-,N/A,,Clear,0,2014-03-03 10:35:00
4:55 AM,-9.4,-16.6,71,30.53,10.0,NW,4.6,-,N/A,,Clear,310,2014-03-03 10:55:00
5:15 AM,-9.4,-16.6,71,30.53,10.0,NW,4.6,-,N/A,,Clear,310,2014-03-03 11:15:00
5:35 AM,-7.6,-16.6,65,30.52,10.0,WNW,3.5,-,N/A,,Clear,300,2014-03-03 11:35:00
5:55 AM,-7.6,-16.6,65,30.52,10.0,WNW,4.6,-,N/A,,Clear,290,2014-03-03 11:55:00
6:15 AM,-9.4,-16.6,71,30.52,10.0,WNW,5.8,-,N/A,,Clear,300,2014-03-03 12:15:00
6:35 AM,-7.6,-16.6,65,30.52,10.0,WNW,3.5,-,N/A,,Clear,300,2014-03-03 12:35:00
6:55 AM,-9.4,-16.6,71,30.52,10.0,Calm,Calm,-,N/A,,Clear,0,2014-03-03 12:55:00
7:15 AM,-9.4,-16.6,71,30.52,10.0,Calm,Calm,-,N/A,,Clear,0,2014-03-03 13:15:00
7:35 AM,-7.6,-14.8,71,30.52,10.0,Calm,Calm,-,N/A,,Clear,0,2014-03-03 13:35:00
7:55 AM,-5.8,-14.8,65,30.52,10.0,Calm,Calm,-,N/A,,Clear,0,2014-03-03 13:55:00
8:15 AM,-5.8,-14.8,65,30.52,10.0,Calm,Calm,-,N/A,,Clear,0,2014-03-03 14:15:00
8:35 AM,-4.0,-14.8,60,30.53,10.0,Calm,Calm,-,N/A,,Clear,0,2014-03-03 14:35:00
8:50 AM,-2.2,-13.0,60,30.53,10.0,Calm,Calm,-,N/A,,Clear,0,2014-03-03 14:50:00
9:15 AM,-0.4,-13.0,55,30.53,10.0,Calm,Calm,-,N/A,,Clear,0,2014-03-03 15:15:00
9:35 AM,-0.4,-11.2,60,30.53,10.0,South,4.6,-,N/A,,Clear,180,2014-03-03 15:35:00
9:55 AM,1.4,-11.2,56,30.53,10.0,SSW,4.6,-,N/A,,Clear,210,2014-03-03 15:55:00
10:15 AM,3.2,-11.2,51,30.52,10.0,Calm,Calm,-,N/A,,Clear,0,2014-03-03 16:15:00
10:35 AM,5.0,-9.4,52,30.52,10.0,Calm,Calm,-,N/A,,Clear,0,2014-03-03 16:35:00
10:55 AM,5.0,-9.4,52,30.51,10.0,Calm,Calm,-,N/A,,Clear,0,2014-03-03 16:55:00
11:15 AM,6.8,-9.4,48,30.51,10.0,Calm,Calm,-,N/A,,Clear,0,2014-03-03 17:15:00
11:35 AM,6.8,-9.4,48,30.50,10.0,South,6.9,-,N/A,,Clear,170,2014-03-03 17:35:00
11:55 AM,8.6,-9.4,44,30.49,10.0,SSE,4.6,-,N/A,,Clear,160,2014-03-03 17:55:00
12:15 PM,8.6,-7.6,48,30.48,10.0,Variable,3.5,-,N/A,,Clear,0,2014-03-03 18:15:00
12:35 PM,10.4,-5.8,48,30.47,10.0,Variable,4.6,-,N/A,,Clear,0,2014-03-03 18:35:00
12:55 PM,10.4,-5.8,48,30.47,10.0,South,4.6,-,N/A,,Clear,170,2014-03-03 18:55:00
1:15 PM,12.2,-5.8,45,30.45,10.0,SE,5.8,-,N/A,,Clear,140,2014-03-03 19:15:00
1:35 PM,12.2,-4.0,48,30.44,10.0,South,8.1,-,N/A,,Clear,180,2014-03-03 19:35:00
1:55 PM,14.0,-4.0,45,30.43,10.0,SE,6.9,-,N/A,,Clear,140,2014-03-03 19:55:00
2:15 PM,14.0,-4.0,45,30.42,10.0,South,8.1,-,N/A,,Clear,170,2014-03-03 20:15:00
2:35 PM,15.8,-2.2,45,30.41,10.0,SSE,6.9,-,N/A,,Clear,150,2014-03-03 20:35:00
2:55 PM,15.8,-0.4,49,30.39,10.0,South,8.1,13.8,N/A,,Clear,170,2014-03-03 20:55:00
3:15 PM,15.8,-2.2,45,30.38,10.0,South,10.4,-,N/A,,Clear,170,2014-03-03 21:15:00
3:35 PM,17.6,-0.4,45,30.37,10.0,SSE,10.4,17.3,N/A,,Clear,160,2014-03-03 21:35:00
3:55 PM,17.6,-2.2,42,30.36,10.0,SSE,11.5,-,N/A,,Clear,160,2014-03-03 21:55:00
4:15 PM,17.6,-0.4,45,30.35,10.0,SSE,11.5,-,N/A,,Clear,160,2014-03-03 22:15:00
4:35 PM,17.6,-0.4,45,30.34,10.0,SSE,11.5,18.4,N/A,,Clear,160,2014-03-03 22:35:00
4:55 PM,17.6,-0.4,45,30.33,10.0,SSE,12.7,-,N/A,,Clear,150,2014-03-03 22:55:00
5:15 PM,17.6,-0.4,45,30.31,10.0,SSE,12.7,18.4,N/A,,Clear,160,2014-03-03 23:15:00
5:35 PM,17.6,-0.4,45,30.30,10.0,SSE,12.7,19.6,N/A,,Clear,160,2014-03-03 23:35:00
5:55 PM,17.6,-0.4,45,30.30,10.0,South,15.0,-,N/A,,Partly Cloudy,170,2014-03-03 23:55:00
6:15 PM,15.8,-2.2,45,30.29,10.0,SSE,16.1,-,N/A,,Mostly Cloudy,160,2014-03-04 00:15:00
6:35 PM,15.8,-0.4,49,30.29,10.0,South,13.8,-,N/A,,Overcast,170,2014-03-04 00:35:00
6:55 PM,15.8,-0.4,49,30.28,10.0,SSE,10.4,-,N/A,,Overcast,160,2014-03-04 00:55:00
7:15 PM,15.8,-0.4,49,30.28,10.0,SSE,12.7,-,N/A,,Overcast,160,2014-03-04 01:15:00
7:35 PM,15.8,1.4,53,30.27,10.0,SSE,13.8,-,N/A,,Mostly Cloudy,150,2014-03-04 01:35:00
7:55 PM,15.8,1.4,53,30.29,10.0,SSE,11.5,-,N/A,,Overcast,160,2014-03-04 01:55:00
8:15 PM,15.8,1.4,53,30.30,10.0,South,11.5,-,N/A,,Overcast,180,2014-03-04 02:15:00
8:35 PM,15.8,1.4,53,30.29,10.0,SSE,11.5,-,N/A,,Overcast,160,2014-03-04 02:35:00
8:55 PM,15.8,1.4,53,30.27,10.0,SSE,11.5,-,N/A,,Mostly Cloudy,160,2014-03-04 02:55:00
9:15 PM,15.8,1.4,53,30.28,10.0,South,12.7,-,N/A,,Overcast,170,2014-03-04 03:15:00
9:35 PM,15.8,1.4,53,30.28,10.0,South,8.1,13.8,N/A,,Overcast,180,2014-03-04 03:35:00
9:55 PM,15.8,-0.4,49,30.28,10.0,South,11.5,-,N/A,,Overcast,180,2014-03-04 03:55:00
10:15 PM,15.8,-2.2,45,30.28,10.0,South,13.8,-,N/A,,Overcast,180,2014-03-04 04:15:00
10:35 PM,15.8,-2.2,45,30.25,10.0,South,13.8,20.7,N/A,,Mostly Cloudy,180,2014-03-04 04:35:00
10:55 PM,15.8,-2.2,45,30.24,10.0,South,13.8,-,N/A,,Overcast,180,2014-03-04 04:55:00
11:15 PM,15.8,-2.2,45,30.24,10.0,South,12.7,-,N/A,,Overcast,190,2014-03-04 05:15:00
11:35 PM,15.8,-2.2,45,30.24,10.0,South,11.5,-,N/A,,Overcast,190,2014-03-04 05:35:00
11:55 PM,15.8,-2.2,45,30.24,10.0,SSW,12.7,-,N/A,,Overcast,210,2014-03-04 05:55:00